Location: Tierz
(42.1336°N, 0.3549°W)
Time: 21:46:39
(UTC+00:00)

Milstar 3 - Pass Details

Date: 29 October 2020
Orbit: 1101 x 5144 km, 28.2° (Epoch: 28 November)

Event Time Altitude Azimuth Distance (km) Brightness Sun altitude
Rises 18:58:24 0° 253° (WSW) 4,210 7.0 -22.7°
Reaches altitude 10° 19:01:51 10° 240° (WSW) 3,043 5.8 -23.4°
Maximum altitude 19:07:17 25° 186° (S) 2,036 4.1 -24.4°
Enters shadow 19:09:43 21° 155° (SSE) 2,299 4.2 -24.8°
